Weather History for Palmdale, CA

Change the Weather History Date:

Monday, March 24, 2014

  Actual Average Record
Temperature  
Mean Temperature 62 °F 54 °F  
Max Temperature 81 °F 68 °F 84 °F (1956)
Min Temperature 43 °F 40 °F 27 °F (1933)
Degree Days  
Heating Degree Days 3 11  
Month to date heating degree days 200 299  
Since 1 July heating degree days 2098 2544  
Cooling Degree Days 0 0  
Month to date cooling degree days 0 0  
Year to date cooling degree days 1 0  
Growing Degree Days 12 (Base 50)    
Moisture  
Dew Point 26 °F    
Average Humidity 35    
Maximum Humidity 62    
Minimum Humidity 7    
Precipitation  
Precipitation 0.00 in 0.02 in 0.56 in (1983)
Month to date precipitation 0.48 1.04  
Year to date precipitation 1.87 4.33  
Since 1 July precipitation 3.94 7.31  
Snow  
Snow 0.00 in - 0.00 in (1974)
Month to date snowfall 0.0  
Since 1 July snowfall 0.0  
Snow Depth 0.00 in    
Sea Level Pressure  
Sea Level Pressure 30.04 in    
Wind  
Wind Speed 6 mph (ESE)    
Max Wind Speed 16 mph    
Max Gust Speed 22 mph    
Visibility 10 miles    
Events      
T = Trace of Precipitation, MM = Missing Value Source: NWS Daily Summary

Daily Weather History Graph

Daily Weather History Graph

Search for Another Location

Airport:

Trip Planner

Search our weather history database for the weather conditions in past years. The results will help you decide how hot, cold, wet, or windy it might be!

Date:

Astronomy

Mar. 24, 2014 Rise Set
Actual Time 6:50 AM PDT 7:07 PM PDT
Civil Twilight 6:25 AM PDT 7:32 PM PDT
Nautical Twilight 5:55 AM PDT 8:01 PM PDT
Astronomical Twilight 5:25 AM PDT 8:31 PM PDT
Moon 2:11 AM PDT (3/24) 12:50 PM PDT (3/24)
Length of Visible Light 13h 07m
Length of Day
12h 16m
Last Quarter, 42% of the Moon is Illuminated
Mar 24
Last Quarter
Mar 30
New
Apr 7
First Quarter
Apr 15
Full
Apr 22
Last Quarter

Hourly Weather History & Observations

Time (PDT) Temp. Windchill Dew Point Humidity Pressure Visibility Wind Dir Wind Speed Gust Speed Precip Events Conditions
12:53 AM 52.0 °F - 35.1 °F 53% 30.06 in 10.0 mi SSE 5.8 mph - N/A   Clear
1:53 AM 52.0 °F - 35.1 °F 53% 30.05 in 10.0 mi SSW 5.8 mph - N/A   Clear
2:53 AM 50.0 °F - 36.0 °F 59% 30.04 in 10.0 mi Calm Calm - N/A   Clear
3:53 AM 50.0 °F - 32.0 °F 50% 30.04 in 10.0 mi Calm Calm - N/A   Clear
4:53 AM 48.0 °F - 33.1 °F 56% 30.06 in 10.0 mi SSW 4.6 mph - N/A   Clear
5:53 AM 46.0 °F 41.9 °F 33.1 °F 61% 30.07 in 10.0 mi South 8.1 mph - N/A   Clear
6:53 AM 45.0 °F 41.2 °F 32.0 °F 60% 30.09 in 10.0 mi SSW 6.9 mph - N/A   Clear
7:53 AM 50.0 °F - 34.0 °F 54% 30.10 in 10.0 mi SSW 6.9 mph - N/A   Clear
8:53 AM 61.0 °F - 32.0 °F 34% 30.10 in 10.0 mi ESE 3.5 mph - N/A   Clear
9:53 AM 66.0 °F - 33.1 °F 29% 30.10 in 10.0 mi North 5.8 mph - N/A   Clear
10:53 AM 68.0 °F - 28.0 °F 22% 30.10 in 10.0 mi North 4.6 mph - N/A   Clear
11:53 AM 73.0 °F - 25.0 °F 17% 30.09 in 10.0 mi NE 8.1 mph - N/A   Clear
12:53 PM 75.0 °F - 25.0 °F 16% 30.06 in 10.0 mi NNE 5.8 mph - N/A   Clear
1:35 PM 77.0 °F - 21.2 °F 12% 30.08 in 10.0 mi North 9.2 mph - N/A   Clear
1:53 PM 78.1 °F - 21.9 °F 12% 30.02 in 10.0 mi East 8.1 mph - N/A   Clear
2:53 PM 79.0 °F - 15.1 °F 9% 30.00 in 10.0 mi SE 6.9 mph - N/A   Clear
3:53 PM 80.1 °F - 15.1 °F 9% 29.98 in 10.0 mi North 6.9 mph - N/A   Clear
4:53 PM 80.1 °F - 12.9 °F 8% 29.96 in 10.0 mi NNE 4.6 mph - N/A   Clear
5:53 PM 78.1 °F - 10.9 °F 8% 29.96 in 10.0 mi NNE 6.9 mph - N/A   Clear
6:53 PM 75.0 °F - 12.9 °F 9% 29.97 in 10.0 mi North 6.9 mph - N/A   Clear
7:53 PM 66.9 °F - 18.0 °F 15% 29.98 in 10.0 mi North - - N/A   Clear
8:53 PM 64.0 °F - 30.0 °F 28% 29.99 in 10.0 mi West 5.8 mph - N/A   Clear
9:53 PM 59.0 °F - 30.0 °F 33% 30.00 in 10.0 mi South 5.8 mph - N/A   Clear
10:53 PM 60.1 °F - 28.9 °F 31% 30.00 in 10.0 mi WSW 3.5 mph - N/A   Clear
11:53 PM 53.1 °F - 32.0 °F 45% 30.00 in 10.0 mi SSW 8.1 mph - N/A   Clear